Year,Month,Day,Hour,Minute,Value (Times are PST for temperature in C)
2011,05,08,00,00,5.60
2011,05,08,00,01,5.60
2011,05,08,00,02,5.60
2011,05,08,00,03,5.60
2011,05,08,00,04,5.70
2011,05,08,00,05,5.70
2011,05,08,00,06,5.70
2011,05,08,00,07,5.70
2011,05,08,00,08,5.70
2011,05,08,00,09,5.60
2011,05,08,00,10,5.60
2011,05,08,00,11,5.60
2011,05,08,00,12,5.60
2011,05,08,00,13,5.60
2011,05,08,00,14,5.60
2011,05,08,00,15,5.60
2011,05,08,00,16,5.60
2011,05,08,00,17,5.50
2011,05,08,00,18,5.50
2011,05,08,00,19,5.50
2011,05,08,00,20,5.50
2011,05,08,00,21,5.40
2011,05,08,00,22,5.40
2011,05,08,00,23,5.40
2011,05,08,00,24,5.40
2011,05,08,00,25,5.30
2011,05,08,00,26,5.30
2011,05,08,00,27,5.30
2011,05,08,00,28,5.30
2011,05,08,00,29,5.30
2011,05,08,00,30,5.20
2011,05,08,00,31,5.20
2011,05,08,00,32,5.20
2011,05,08,00,33,5.20
2011,05,08,00,34,5.20
2011,05,08,00,35,5.20
2011,05,08,00,36,5.20
2011,05,08,00,37,5.20
2011,05,08,00,38,5.20
2011,05,08,00,39,5.20
2011,05,08,00,40,5.20
2011,05,08,00,41,5.20
2011,05,08,00,42,5.20
2011,05,08,00,43,5.20
2011,05,08,00,44,5.20
2011,05,08,00,45,5.20
2011,05,08,00,46,5.20
2011,05,08,00,47,5.20
2011,05,08,00,48,5.30
2011,05,08,00,49,5.30
2011,05,08,00,50,5.30
2011,05,08,00,51,5.30
2011,05,08,00,52,5.30
2011,05,08,00,53,5.30
2011,05,08,00,54,5.20
2011,05,08,00,55,5.20
2011,05,08,00,56,5.10
2011,05,08,00,57,5.10
2011,05,08,00,58,5.10
2011,05,08,00,59,5.10
2011,05,08,01,00,5.00
2011,05,08,01,01,5.00
2011,05,08,01,02,5.00
2011,05,08,01,03,4.90
2011,05,08,01,04,4.90
2011,05,08,01,05,4.90
2011,05,08,01,06,4.90
2011,05,08,01,07,4.80
2011,05,08,01,08,4.80
2011,05,08,01,09,4.80
2011,05,08,01,10,4.80
2011,05,08,01,11,4.80
2011,05,08,01,12,4.80
2011,05,08,01,13,4.80
2011,05,08,01,14,4.80
2011,05,08,01,15,4.80
2011,05,08,01,16,4.80
2011,05,08,01,17,4.80
2011,05,08,01,18,4.80
2011,05,08,01,19,4.80
2011,05,08,01,20,4.70
2011,05,08,01,21,4.70
2011,05,08,01,22,4.70
2011,05,08,01,23,4.70
2011,05,08,01,24,4.70
2011,05,08,01,25,4.70
2011,05,08,01,26,4.70
2011,05,08,01,27,4.60
2011,05,08,01,28,4.60
2011,05,08,01,29,4.60
2011,05,08,01,30,4.60
2011,05,08,01,31,4.60
2011,05,08,01,32,4.50
2011,05,08,01,33,4.50
2011,05,08,01,34,4.50
2011,05,08,01,35,4.50
2011,05,08,01,36,4.40
2011,05,08,01,37,4.40
2011,05,08,01,38,4.40
2011,05,08,01,39,4.40
2011,05,08,01,40,4.40
2011,05,08,01,41,4.40
2011,05,08,01,42,4.40
2011,05,08,01,43,4.30
2011,05,08,01,44,4.30
2011,05,08,01,45,4.30
2011,05,08,01,46,4.30
2011,05,08,01,47,4.30
2011,05,08,01,48,4.30
2011,05,08,01,49,4.30
2011,05,08,01,50,4.30
2011,05,08,01,51,4.30
2011,05,08,01,52,4.30
2011,05,08,01,53,4.30
2011,05,08,01,54,4.30
2011,05,08,01,55,4.30
2011,05,08,01,56,4.30
2011,05,08,01,57,4.30
2011,05,08,01,58,4.30
2011,05,08,01,59,4.40
2011,05,08,02,00,4.40
2011,05,08,02,01,4.40
2011,05,08,02,02,4.40
2011,05,08,02,03,4.40
2011,05,08,02,04,4.50
2011,05,08,02,05,4.50
2011,05,08,02,06,4.50
2011,05,08,02,07,4.50
2011,05,08,02,08,4.50
2011,05,08,02,09,4.50
2011,05,08,02,10,4.50
2011,05,08,02,11,4.40
2011,05,08,02,12,4.40
2011,05,08,02,13,4.40
2011,05,08,02,14,4.40
2011,05,08,02,15,4.40
2011,05,08,02,16,4.40
2011,05,08,02,17,4.40
2011,05,08,02,18,4.40
2011,05,08,02,19,4.40
2011,05,08,02,20,4.40
2011,05,08,02,21,4.40
2011,05,08,02,22,4.40
2011,05,08,02,23,4.40
2011,05,08,02,24,4.40
2011,05,08,02,25,4.40
2011,05,08,02,26,4.50
2011,05,08,02,27,4.50
2011,05,08,02,28,4.50
2011,05,08,02,29,4.50
2011,05,08,02,30,4.50
2011,05,08,02,31,4.50
2011,05,08,02,32,4.50
2011,05,08,02,33,4.50
2011,05,08,02,34,4.60
2011,05,08,02,35,4.60
2011,05,08,02,36,4.60
2011,05,08,02,37,4.60
2011,05,08,02,38,4.60
2011,05,08,02,39,4.60
2011,05,08,02,40,4.50
2011,05,08,02,41,4.50
2011,05,08,02,42,4.50
2011,05,08,02,43,4.50
2011,05,08,02,44,4.40
2011,05,08,02,45,4.40
2011,05,08,02,46,4.40
2011,05,08,02,47,4.40
2011,05,08,02,48,4.40
2011,05,08,02,49,4.40
2011,05,08,02,50,4.40
2011,05,08,02,51,4.40
2011,05,08,02,52,4.40
2011,05,08,02,53,4.40
2011,05,08,02,54,4.40
2011,05,08,02,55,4.50
2011,05,08,02,56,4.50
2011,05,08,02,57,4.60
2011,05,08,02,58,4.60
2011,05,08,02,59,4.60
2011,05,08,03,00,4.70
2011,05,08,03,01,4.70
2011,05,08,03,02,4.70
2011,05,08,03,03,4.70
2011,05,08,03,04,4.70
2011,05,08,03,05,4.60
2011,05,08,03,06,4.60
2011,05,08,03,07,4.60
2011,05,08,03,08,4.70
2011,05,08,03,09,4.70
2011,05,08,03,10,4.70
2011,05,08,03,11,4.70
2011,05,08,03,12,4.70
2011,05,08,03,13,4.80
2011,05,08,03,14,4.80
2011,05,08,03,15,4.80
2011,05,08,03,16,4.80
2011,05,08,03,17,4.90
2011,05,08,03,18,4.90
2011,05,08,03,19,4.90
2011,05,08,03,20,5.00
2011,05,08,03,21,5.00
2011,05,08,03,22,5.00
2011,05,08,03,23,5.00
2011,05,08,03,24,5.00
2011,05,08,03,25,5.00
2011,05,08,03,26,5.00
2011,05,08,03,27,5.00
2011,05,08,03,28,5.10
2011,05,08,03,29,5.10
2011,05,08,03,30,5.10
2011,05,08,03,31,5.10
2011,05,08,03,32,5.10
2011,05,08,03,33,5.10
2011,05,08,03,34,5.10
2011,05,08,03,35,5.10
2011,05,08,03,36,5.10
2011,05,08,03,37,5.10
2011,05,08,03,38,5.10
2011,05,08,03,39,5.10
2011,05,08,03,40,5.10
2011,05,08,03,41,5.10
2011,05,08,03,42,5.00
2011,05,08,03,43,5.00
2011,05,08,03,44,5.00
2011,05,08,03,45,4.90
2011,05,08,03,46,4.90
2011,05,08,03,47,4.90
2011,05,08,03,48,4.80
2011,05,08,03,49,4.80
2011,05,08,03,50,4.80
2011,05,08,03,51,4.80
2011,05,08,03,52,4.80
2011,05,08,03,53,4.80
2011,05,08,03,54,4.80
2011,05,08,03,55,4.80
2011,05,08,03,56,4.80
2011,05,08,03,57,4.80
2011,05,08,03,58,4.80
2011,05,08,03,59,4.80
2011,05,08,04,00,4.80
2011,05,08,04,01,4.80
2011,05,08,04,02,4.80
2011,05,08,04,03,4.80
2011,05,08,04,04,4.80
2011,05,08,04,05,4.80
2011,05,08,04,06,4.80
2011,05,08,04,07,4.80
2011,05,08,04,08,4.80
2011,05,08,04,09,4.80
2011,05,08,04,10,4.90
2011,05,08,04,11,4.90
2011,05,08,04,12,4.90
2011,05,08,04,13,4.90
2011,05,08,04,14,4.90
2011,05,08,04,15,5.00
2011,05,08,04,16,5.00
2011,05,08,04,17,5.10
2011,05,08,04,18,5.10
2011,05,08,04,19,5.10
2011,05,08,04,20,5.10
2011,05,08,04,21,5.10
2011,05,08,04,22,5.10
2011,05,08,04,23,5.10
2011,05,08,04,24,5.10
2011,05,08,04,25,5.10
2011,05,08,04,26,5.20
2011,05,08,04,27,5.20
2011,05,08,04,28,5.20
2011,05,08,04,29,5.20
2011,05,08,04,30,5.20
2011,05,08,04,31,5.20
2011,05,08,04,32,5.20
2011,05,08,04,33,5.20
2011,05,08,04,34,5.30
2011,05,08,04,35,5.30
2011,05,08,04,36,5.30
2011,05,08,04,37,5.30
2011,05,08,04,38,5.30
2011,05,08,04,39,5.30
2011,05,08,04,40,5.30
2011,05,08,04,41,5.30
2011,05,08,04,42,5.30
2011,05,08,04,43,5.30
2011,05,08,04,44,5.30
2011,05,08,04,45,5.30
2011,05,08,04,46,5.30
2011,05,08,04,47,5.30
2011,05,08,04,48,5.30
2011,05,08,04,49,5.30
2011,05,08,04,50,5.30
2011,05,08,04,51,5.30
2011,05,08,04,52,5.30
2011,05,08,04,53,5.40
2011,05,08,04,54,5.40
2011,05,08,04,55,5.40
2011,05,08,04,56,5.50
2011,05,08,04,57,5.60
2011,05,08,04,58,5.60
2011,05,08,04,59,5.60
2011,05,08,05,00,5.60
2011,05,08,05,01,5.70
2011,05,08,05,02,5.70
2011,05,08,05,03,5.70
2011,05,08,05,04,5.80
2011,05,08,05,05,5.80
2011,05,08,05,06,5.80
2011,05,08,05,07,5.90
2011,05,08,05,08,5.90
2011,05,08,05,09,5.90
2011,05,08,05,10,5.90
2011,05,08,05,11,6.00
2011,05,08,05,12,6.00
2011,05,08,05,13,6.00
2011,05,08,05,14,6.00
2011,05,08,05,15,6.10
2011,05,08,05,16,6.10
2011,05,08,05,17,6.10
2011,05,08,05,18,6.10
2011,05,08,05,19,6.10
2011,05,08,05,20,6.10
2011,05,08,05,21,6.10
2011,05,08,05,22,6.00
2011,05,08,05,23,6.00
2011,05,08,05,24,6.00
2011,05,08,05,25,6.00
2011,05,08,05,26,5.90
2011,05,08,05,27,5.90
2011,05,08,05,28,5.90
2011,05,08,05,29,6.00
2011,05,08,05,30,6.00
2011,05,08,05,31,6.00
2011,05,08,05,32,6.00
2011,05,08,05,33,6.00
2011,05,08,05,34,6.10
2011,05,08,05,35,6.10
2011,05,08,05,36,6.10
2011,05,08,05,37,6.10
2011,05,08,05,38,6.20
2011,05,08,05,39,6.20
2011,05,08,05,40,6.20
2011,05,08,05,41,6.20
2011,05,08,05,42,6.30
2011,05,08,05,43,6.30
2011,05,08,05,44,6.30
2011,05,08,05,45,6.30
2011,05,08,05,46,6.30
2011,05,08,05,47,6.40
2011,05,08,05,48,6.40
2011,05,08,05,49,6.40
2011,05,08,05,50,6.50
2011,05,08,05,51,6.60
2011,05,08,05,52,6.60
2011,05,08,05,53,6.60
2011,05,08,05,54,6.60
2011,05,08,05,55,6.60
2011,05,08,05,56,6.60
2011,05,08,05,57,6.60
2011,05,08,05,58,6.50
2011,05,08,05,59,6.50
2011,05,08,06,00,6.40
2011,05,08,06,01,6.40
2011,05,08,06,02,6.40
2011,05,08,06,03,6.40
2011,05,08,06,04,6.40
2011,05,08,06,05,6.40
2011,05,08,06,06,6.40
2011,05,08,06,07,6.40
2011,05,08,06,08,6.30
2011,05,08,06,09,6.30
2011,05,08,06,10,6.30
2011,05,08,06,11,6.30
2011,05,08,06,12,6.30
2011,05,08,06,13,6.30
2011,05,08,06,14,6.30
2011,05,08,06,15,6.30
2011,05,08,06,16,6.40
2011,05,08,06,17,6.40
2011,05,08,06,18,6.50
2011,05,08,06,19,6.50
2011,05,08,06,20,6.50
2011,05,08,06,21,6.60
2011,05,08,06,22,6.60
2011,05,08,06,23,6.60
2011,05,08,06,24,6.60
2011,05,08,06,25,6.70
2011,05,08,06,26,6.70
2011,05,08,06,27,6.70
2011,05,08,06,28,6.70
2011,05,08,06,29,6.70
2011,05,08,06,30,6.80
2011,05,08,06,31,6.80
2011,05,08,06,32,6.80
2011,05,08,06,33,6.80
2011,05,08,06,34,6.80
2011,05,08,06,35,6.90
2011,05,08,06,36,6.90
2011,05,08,06,37,6.90
2011,05,08,06,38,6.90
2011,05,08,06,39,6.90
2011,05,08,06,40,6.90
2011,05,08,06,41,6.90
2011,05,08,06,42,6.90
2011,05,08,06,43,6.90
2011,05,08,06,44,6.90
2011,05,08,06,45,6.90
2011,05,08,06,46,7.00
2011,05,08,06,47,7.00
2011,05,08,06,48,6.90
2011,05,08,06,49,6.90
2011,05,08,06,50,6.90
2011,05,08,06,51,6.90
2011,05,08,06,52,6.90
2011,05,08,06,53,6.90
2011,05,08,06,54,6.90
2011,05,08,06,55,6.90
2011,05,08,06,56,6.90
2011,05,08,06,57,6.90
2011,05,08,06,58,6.90
2011,05,08,06,59,6.90
2011,05,08,07,00,6.90
2011,05,08,07,01,6.90
2011,05,08,07,02,6.90
2011,05,08,07,03,6.90
2011,05,08,07,04,6.90
2011,05,08,07,05,6.90
2011,05,08,07,06,6.90
2011,05,08,07,07,6.90
2011,05,08,07,08,6.90
2011,05,08,07,09,6.90
2011,05,08,07,10,6.90
2011,05,08,07,11,6.90
2011,05,08,07,12,6.90
2011,05,08,07,13,6.90
2011,05,08,07,14,6.90
2011,05,08,07,15,6.90
2011,05,08,07,16,6.90
2011,05,08,07,17,6.90
2011,05,08,07,18,6.90
2011,05,08,07,19,6.90
2011,05,08,07,20,6.90
2011,05,08,07,21,6.90
2011,05,08,07,22,6.90
2011,05,08,07,23,6.90
2011,05,08,07,24,6.90
2011,05,08,07,25,6.90
2011,05,08,07,26,6.90
2011,05,08,07,27,6.90
2011,05,08,07,28,7.00
2011,05,08,07,29,7.00
2011,05,08,07,30,7.00
2011,05,08,07,31,7.00
2011,05,08,07,32,7.00
2011,05,08,07,33,7.00
2011,05,08,07,34,7.10
2011,05,08,07,35,7.10
2011,05,08,07,36,7.10
2011,05,08,07,37,7.10
2011,05,08,07,38,7.10
2011,05,08,07,39,7.10
2011,05,08,07,40,7.20
2011,05,08,07,41,7.20
2011,05,08,07,42,7.20
2011,05,08,07,43,7.20
2011,05,08,07,44,7.20
2011,05,08,07,45,7.20
2011,05,08,07,46,7.20
2011,05,08,07,47,7.20
2011,05,08,07,48,7.20
2011,05,08,07,49,7.20
2011,05,08,07,50,7.30
2011,05,08,07,51,7.30
2011,05,08,07,52,7.30
2011,05,08,07,53,7.30
2011,05,08,07,54,7.40
2011,05,08,07,55,7.40
2011,05,08,07,56,7.40
2011,05,08,07,57,7.40
2011,05,08,07,58,7.40
2011,05,08,07,59,7.40
2011,05,08,08,00,7.50
2011,05,08,08,01,7.50
2011,05,08,08,02,7.50
2011,05,08,08,03,7.50
2011,05,08,08,04,7.50
2011,05,08,08,05,7.50
2011,05,08,08,06,7.50
2011,05,08,08,07,7.50
2011,05,08,08,08,7.50
2011,05,08,08,09,7.50
2011,05,08,08,10,7.50
2011,05,08,08,11,7.50
2011,05,08,08,12,7.50
2011,05,08,08,13,7.60
2011,05,08,08,14,7.60
2011,05,08,08,15,7.60
2011,05,08,08,16,7.60
2011,05,08,08,17,7.60
2011,05,08,08,18,7.60
2011,05,08,08,19,7.60
2011,05,08,08,20,7.70
2011,05,08,08,21,7.70
2011,05,08,08,22,7.70
2011,05,08,08,23,7.70
2011,05,08,08,24,7.70
2011,05,08,08,25,7.70
2011,05,08,08,26,7.70
2011,05,08,08,27,7.70
2011,05,08,08,28,7.70
2011,05,08,08,29,7.60
2011,05,08,08,30,7.60
2011,05,08,08,31,7.60
2011,05,08,08,32,7.50
2011,05,08,08,33,7.50
2011,05,08,08,34,7.50
2011,05,08,08,35,7.40
2011,05,08,08,36,7.40
2011,05,08,08,37,7.40
2011,05,08,08,38,7.40
2011,05,08,08,39,7.40
2011,05,08,08,40,7.40
2011,05,08,08,41,7.50
2011,05,08,08,42,7.50
2011,05,08,08,43,7.50
2011,05,08,08,44,7.60
2011,05,08,08,45,7.60
2011,05,08,08,46,7.70
2011,05,08,08,47,7.70
2011,05,08,08,48,7.80
2011,05,08,08,49,7.80
2011,05,08,08,50,7.80
2011,05,08,08,51,7.80
2011,05,08,08,52,7.80
2011,05,08,08,53,7.80
2011,05,08,08,54,7.80
2011,05,08,08,55,7.80
2011,05,08,08,56,7.80
2011,05,08,08,57,7.80
2011,05,08,08,58,7.80
2011,05,08,08,59,7.80
2011,05,08,09,00,7.90
2011,05,08,09,01,7.90
2011,05,08,09,02,8.00
2011,05,08,09,03,8.00
2011,05,08,09,04,8.10
2011,05,08,09,05,8.10
2011,05,08,09,06,8.10
2011,05,08,09,07,8.10
2011,05,08,09,08,8.20
2011,05,08,09,09,8.20
2011,05,08,09,10,8.30
2011,05,08,09,11,8.40
2011,05,08,09,12,8.40
2011,05,08,09,13,8.40
2011,05,08,09,14,8.50
2011,05,08,09,15,8.50
2011,05,08,09,16,8.50
2011,05,08,09,17,8.50
2011,05,08,09,18,8.60
2011,05,08,09,19,8.60
2011,05,08,09,20,8.70
2011,05,08,09,21,8.70
2011,05,08,09,22,8.70
2011,05,08,09,23,8.70
2011,05,08,09,24,8.80
2011,05,08,09,25,8.80
2011,05,08,09,26,8.80
2011,05,08,09,27,8.90
2011,05,08,09,28,9.00
2011,05,08,09,29,9.00
2011,05,08,09,30,9.00
2011,05,08,09,31,9.00
2011,05,08,09,32,9.00
2011,05,08,09,33,9.00
2011,05,08,09,34,8.90
2011,05,08,09,35,8.90
2011,05,08,09,36,8.90
2011,05,08,09,37,8.80
2011,05,08,09,38,8.80
2011,05,08,09,39,8.80
2011,05,08,09,40,8.80
2011,05,08,09,41,8.80
2011,05,08,09,42,8.80
2011,05,08,09,43,8.80
2011,05,08,09,44,8.80
2011,05,08,09,45,8.80
2011,05,08,09,46,8.80
2011,05,08,09,47,8.80
2011,05,08,09,48,8.80
2011,05,08,09,49,8.70
2011,05,08,09,50,8.70
2011,05,08,09,51,8.60
2011,05,08,09,52,8.60
2011,05,08,09,53,8.50
2011,05,08,09,54,8.50
2011,05,08,09,55,8.40
2011,05,08,09,56,8.40
2011,05,08,09,57,8.40
2011,05,08,09,58,8.30
2011,05,08,09,59,8.30
2011,05,08,10,00,8.30
2011,05,08,10,01,8.40
2011,05,08,10,02,8.40
2011,05,08,10,03,8.40
2011,05,08,10,04,8.50
2011,05,08,10,05,8.60
2011,05,08,10,06,8.70
2011,05,08,10,07,8.70
2011,05,08,10,08,8.70
2011,05,08,10,09,8.80
2011,05,08,10,10,8.80
2011,05,08,10,11,8.80
2011,05,08,10,12,8.80
2011,05,08,10,13,8.80
2011,05,08,10,14,8.80
2011,05,08,10,15,8.90
2011,05,08,10,16,8.90
2011,05,08,10,17,9.00
2011,05,08,10,18,9.00
2011,05,08,10,19,9.10
2011,05,08,10,20,9.10
2011,05,08,10,21,9.10
2011,05,08,10,22,9.20
2011,05,08,10,23,9.20
2011,05,08,10,24,9.20
2011,05,08,10,25,9.20
2011,05,08,10,26,9.20
2011,05,08,10,27,9.20
2011,05,08,10,28,9.20
2011,05,08,10,29,9.20
2011,05,08,10,30,9.20
2011,05,08,10,31,9.20
2011,05,08,10,32,9.10
2011,05,08,10,33,9.10
2011,05,08,10,34,9.10
2011,05,08,10,35,9.10
2011,05,08,10,36,9.10
2011,05,08,10,37,9.10
2011,05,08,10,38,9.10
2011,05,08,10,39,9.00
2011,05,08,10,40,9.10
2011,05,08,10,41,9.20
2011,05,08,10,42,9.20
2011,05,08,10,43,9.20
2011,05,08,10,44,9.20
2011,05,08,10,45,9.20
2011,05,08,10,46,9.30
2011,05,08,10,47,9.30
2011,05,08,10,48,9.30
2011,05,08,10,49,9.30
2011,05,08,10,50,9.30
2011,05,08,10,51,9.20
2011,05,08,10,52,9.20
2011,05,08,10,53,9.30
2011,05,08,10,54,9.20
2011,05,08,10,55,9.30
2011,05,08,10,56,9.30
2011,05,08,10,57,9.30
2011,05,08,10,58,9.30
2011,05,08,10,59,9.30
2011,05,08,11,00,9.30
2011,05,08,11,01,9.40
2011,05,08,11,02,9.50
2011,05,08,11,03,9.70
2011,05,08,11,04,9.80
2011,05,08,11,05,9.90
2011,05,08,11,06,10.00
2011,05,08,11,07,10.10
2011,05,08,11,08,10.20
2011,05,08,11,09,10.20
2011,05,08,11,10,10.20
2011,05,08,11,11,10.20
2011,05,08,11,12,10.30
2011,05,08,11,13,10.40
2011,05,08,11,14,10.50
2011,05,08,11,15,10.60
2011,05,08,11,16,10.70
2011,05,08,11,17,10.70
2011,05,08,11,18,10.70
2011,05,08,11,19,10.70
2011,05,08,11,20,10.70
2011,05,08,11,21,10.60
2011,05,08,11,22,10.60
2011,05,08,11,23,10.60
2011,05,08,11,24,10.50
2011,05,08,11,25,10.40
2011,05,08,11,26,10.40
2011,05,08,11,27,10.30
2011,05,08,11,28,10.30
2011,05,08,11,29,10.20
2011,05,08,11,30,10.20
2011,05,08,11,31,10.10
2011,05,08,11,32,10.10
2011,05,08,11,33,10.10
2011,05,08,11,34,10.10
2011,05,08,11,35,10.20
2011,05,08,11,36,10.10
2011,05,08,11,37,10.00
2011,05,08,11,38,9.90
2011,05,08,11,39,9.90
2011,05,08,11,40,10.00
2011,05,08,11,41,10.00
2011,05,08,11,42,10.10
2011,05,08,11,43,10.20
2011,05,08,11,44,10.30
2011,05,08,11,45,10.30
2011,05,08,11,46,10.20
2011,05,08,11,47,10.30
2011,05,08,11,48,10.30
2011,05,08,11,49,10.30
2011,05,08,11,50,10.40
2011,05,08,11,51,10.40
2011,05,08,11,52,10.40
2011,05,08,11,53,10.30
2011,05,08,11,54,10.10
2011,05,08,11,55,10.00
2011,05,08,11,56,10.00
2011,05,08,11,57,10.10
2011,05,08,11,58,10.30
2011,05,08,11,59,10.40
2011,05,08,12,00,10.50
2011,05,08,12,01,10.60
2011,05,08,12,02,10.70
2011,05,08,12,03,10.60
2011,05,08,12,04,10.60
2011,05,08,12,05,10.50
2011,05,08,12,06,10.30
2011,05,08,12,07,10.30
2011,05,08,12,08,10.40
2011,05,08,12,09,10.50
2011,05,08,12,10,10.60
2011,05,08,12,11,10.60
2011,05,08,12,12,10.50
2011,05,08,12,13,10.50
2011,05,08,12,14,10.50
2011,05,08,12,15,10.40
2011,05,08,12,16,10.30
2011,05,08,12,17,10.30
2011,05,08,12,18,10.20
2011,05,08,12,19,10.30
2011,05,08,12,20,10.50
2011,05,08,12,21,10.70
2011,05,08,12,22,10.80
2011,05,08,12,23,10.90
2011,05,08,12,24,10.90
2011,05,08,12,25,10.90
2011,05,08,12,26,10.90
2011,05,08,12,27,11.00
2011,05,08,12,28,11.10
2011,05,08,12,29,11.00
2011,05,08,12,30,11.00
2011,05,08,12,31,11.00
2011,05,08,12,32,10.90
2011,05,08,12,33,10.80
2011,05,08,12,34,10.80
2011,05,08,12,35,10.80
2011,05,08,12,36,10.80
2011,05,08,12,37,10.70
2011,05,08,12,38,10.60
2011,05,08,12,39,10.60
2011,05,08,12,40,10.60
2011,05,08,12,41,10.60
2011,05,08,12,42,10.60
2011,05,08,12,43,10.60
2011,05,08,12,44,10.50
2011,05,08,12,45,10.40
2011,05,08,12,46,10.30
2011,05,08,12,47,10.30
2011,05,08,12,48,10.30
2011,05,08,12,49,10.20
2011,05,08,12,50,10.20
2011,05,08,12,51,10.20
2011,05,08,12,52,10.20
2011,05,08,12,53,10.20
2011,05,08,12,54,10.20
2011,05,08,12,55,10.10
2011,05,08,12,56,10.10
2011,05,08,12,57,10.10
2011,05,08,12,58,10.20
2011,05,08,12,59,10.20
2011,05,08,13,00,10.30
2011,05,08,13,01,10.40
2011,05,08,13,02,10.40
2011,05,08,13,03,10.50
2011,05,08,13,04,10.70
2011,05,08,13,05,10.70
2011,05,08,13,06,10.70
2011,05,08,13,07,10.80
2011,05,08,13,08,10.80
2011,05,08,13,09,10.90
2011,05,08,13,10,11.00
2011,05,08,13,11,11.10
2011,05,08,13,12,11.20
2011,05,08,13,13,11.30
2011,05,08,13,14,11.30
2011,05,08,13,15,11.30
2011,05,08,13,16,11.20
2011,05,08,13,17,11.20
2011,05,08,13,18,11.00
2011,05,08,13,19,11.00
2011,05,08,13,20,11.10
2011,05,08,13,21,11.20
2011,05,08,13,22,11.20
2011,05,08,13,23,11.30
2011,05,08,13,24,11.40
2011,05,08,13,25,11.50
2011,05,08,13,26,11.50
2011,05,08,13,27,11.40
2011,05,08,13,28,11.30
2011,05,08,13,29,11.30
2011,05,08,13,30,11.40
2011,05,08,13,31,11.50
2011,05,08,13,32,11.60
2011,05,08,13,33,11.70
2011,05,08,13,34,11.90
2011,05,08,13,35,11.90
2011,05,08,13,36,11.90
2011,05,08,13,37,11.90
2011,05,08,13,38,11.90
2011,05,08,13,39,11.90
2011,05,08,13,40,12.00
2011,05,08,13,41,12.00
2011,05,08,13,42,12.10
2011,05,08,13,43,12.20
2011,05,08,13,44,12.30
2011,05,08,13,45,12.30
2011,05,08,13,46,12.30
2011,05,08,13,47,12.30
2011,05,08,13,48,12.20
2011,05,08,13,49,12.10
2011,05,08,13,50,12.10
2011,05,08,13,51,12.10
2011,05,08,13,52,12.20
2011,05,08,13,53,12.30
2011,05,08,13,54,12.20
2011,05,08,13,55,12.30
2011,05,08,13,56,12.40
2011,05,08,13,57,12.40
2011,05,08,13,58,12.30
2011,05,08,13,59,12.30
2011,05,08,14,00,12.40
2011,05,08,14,01,12.40
2011,05,08,14,02,12.40
2011,05,08,14,03,12.40
2011,05,08,14,04,12.30
2011,05,08,14,05,12.30
2011,05,08,14,06,12.40
2011,05,08,14,07,12.40
2011,05,08,14,08,12.50
2011,05,08,14,09,12.60
2011,05,08,14,10,12.80
2011,05,08,14,11,12.80
2011,05,08,14,12,12.80
2011,05,08,14,13,12.70
2011,05,08,14,14,12.70
2011,05,08,14,15,12.70
2011,05,08,14,16,12.70
2011,05,08,14,17,12.70
2011,05,08,14,18,12.70
2011,05,08,14,19,12.70
2011,05,08,14,20,12.60
2011,05,08,14,21,12.50
2011,05,08,14,22,12.50
2011,05,08,14,23,12.40
2011,05,08,14,24,12.30
2011,05,08,14,25,12.30
2011,05,08,14,26,12.30
2011,05,08,14,27,12.30
2011,05,08,14,28,12.40
2011,05,08,14,29,12.50
2011,05,08,14,30,12.60
2011,05,08,14,31,12.70
2011,05,08,14,32,12.80
2011,05,08,14,33,12.90
2011,05,08,14,34,12.90
2011,05,08,14,35,12.80
2011,05,08,14,36,12.70
2011,05,08,14,37,12.70
2011,05,08,14,38,12.60
2011,05,08,14,39,12.60
2011,05,08,14,40,12.60
2011,05,08,14,41,12.70
2011,05,08,14,42,12.80
2011,05,08,14,43,12.90
2011,05,08,14,44,13.00
2011,05,08,14,45,13.00
2011,05,08,14,46,12.90
2011,05,08,14,47,13.00
2011,05,08,14,48,13.10
2011,05,08,14,49,13.10
2011,05,08,14,50,13.10
2011,05,08,14,51,13.20
2011,05,08,14,52,13.20
2011,05,08,14,53,13.20
2011,05,08,14,54,13.20
2011,05,08,14,55,13.20
2011,05,08,14,56,13.20
2011,05,08,14,57,13.30
2011,05,08,14,58,13.30
2011,05,08,14,59,13.30
2011,05,08,15,00,13.30
2011,05,08,15,01,13.40
2011,05,08,15,02,13.30
2011,05,08,15,03,13.30
2011,05,08,15,04,13.40
2011,05,08,15,05,13.40
2011,05,08,15,06,13.30
2011,05,08,15,07,13.30
2011,05,08,15,08,13.10
2011,05,08,15,09,13.00
2011,05,08,15,10,12.90
2011,05,08,15,11,12.90
2011,05,08,15,12,12.90
2011,05,08,15,13,12.90
2011,05,08,15,14,13.00
2011,05,08,15,15,13.10
2011,05,08,15,16,13.20
2011,05,08,15,17,13.20
2011,05,08,15,18,13.30
2011,05,08,15,19,13.30
2011,05,08,15,20,13.20
2011,05,08,15,21,13.10
2011,05,08,15,22,13.10
2011,05,08,15,23,13.00
2011,05,08,15,24,12.90
2011,05,08,15,25,12.80
2011,05,08,15,26,12.80
2011,05,08,15,27,12.70
2011,05,08,15,28,12.70
2011,05,08,15,29,12.70
2011,05,08,15,30,12.80
2011,05,08,15,31,13.00
2011,05,08,15,32,13.10
2011,05,08,15,33,13.20
2011,05,08,15,34,13.20
2011,05,08,15,35,13.20
2011,05,08,15,36,13.20
2011,05,08,15,37,13.20
2011,05,08,15,38,13.20
2011,05,08,15,39,13.20
2011,05,08,15,40,13.10
2011,05,08,15,41,12.90
2011,05,08,15,42,12.80
2011,05,08,15,43,12.90
2011,05,08,15,44,12.90
2011,05,08,15,45,12.90
2011,05,08,15,46,12.90
2011,05,08,15,47,12.90
2011,05,08,15,48,12.90
2011,05,08,15,49,12.90
2011,05,08,15,50,13.00
2011,05,08,15,51,13.10
2011,05,08,15,52,13.10
2011,05,08,15,53,13.10
2011,05,08,15,54,13.10
2011,05,08,15,55,13.20
2011,05,08,15,56,13.20
2011,05,08,15,57,13.20
2011,05,08,15,58,13.20
2011,05,08,15,59,13.20
2011,05,08,16,00,13.20
2011,05,08,16,01,13.20
2011,05,08,16,02,13.30
2011,05,08,16,03,13.30
2011,05,08,16,04,13.40
2011,05,08,16,05,13.40
2011,05,08,16,06,13.50
2011,05,08,16,07,13.50
2011,05,08,16,08,13.60
2011,05,08,16,09,13.70
2011,05,08,16,10,13.70
2011,05,08,16,11,13.70
2011,05,08,16,12,13.70
2011,05,08,16,13,13.70
2011,05,08,16,14,13.70
2011,05,08,16,15,13.70
2011,05,08,16,16,13.70
2011,05,08,16,17,13.80
2011,05,08,16,18,13.80
2011,05,08,16,19,13.80
2011,05,08,16,20,13.70
2011,05,08,16,21,13.60
2011,05,08,16,22,13.40
2011,05,08,16,23,13.30
2011,05,08,16,24,13.20
2011,05,08,16,25,13.20
2011,05,08,16,26,13.20
2011,05,08,16,27,13.20
2011,05,08,16,28,13.30
2011,05,08,16,29,13.40
2011,05,08,16,30,13.50
2011,05,08,16,31,13.50
2011,05,08,16,32,13.50
2011,05,08,16,33,13.50
2011,05,08,16,34,13.60
2011,05,08,16,35,13.50
2011,05,08,16,36,13.50
2011,05,08,16,37,13.50
2011,05,08,16,38,13.50
2011,05,08,16,39,13.50
2011,05,08,16,40,13.40
2011,05,08,16,41,13.40
2011,05,08,16,42,13.40
2011,05,08,16,43,13.30
2011,05,08,16,44,13.30
2011,05,08,16,45,13.30
2011,05,08,16,46,13.30
2011,05,08,16,47,13.20
2011,05,08,16,48,13.10
2011,05,08,16,49,13.10
2011,05,08,16,50,13.10
2011,05,08,16,51,13.10
2011,05,08,16,52,13.20
2011,05,08,16,53,13.10
2011,05,08,16,54,13.10
2011,05,08,16,55,13.10
2011,05,08,16,56,13.00
2011,05,08,16,57,13.00
2011,05,08,16,58,13.00
2011,05,08,16,59,12.90
2011,05,08,17,00,12.90
2011,05,08,17,01,12.90
2011,05,08,17,02,12.90
2011,05,08,17,03,12.80
2011,05,08,17,04,12.80
2011,05,08,17,05,12.80
2011,05,08,17,06,12.70
2011,05,08,17,07,12.70
2011,05,08,17,08,12.70
2011,05,08,17,09,12.80
2011,05,08,17,10,12.80
2011,05,08,17,11,12.90
2011,05,08,17,12,12.90
2011,05,08,17,13,12.90
2011,05,08,17,14,13.00
2011,05,08,17,15,13.10
2011,05,08,17,16,13.20
2011,05,08,17,17,13.20
2011,05,08,17,18,13.30
2011,05,08,17,19,13.30
2011,05,08,17,20,13.40
2011,05,08,17,21,13.40
2011,05,08,17,22,13.40
2011,05,08,17,23,13.40
2011,05,08,17,24,13.40
2011,05,08,17,25,13.30
2011,05,08,17,26,13.30
2011,05,08,17,27,13.30
2011,05,08,17,28,13.20
2011,05,08,17,29,13.20
2011,05,08,17,30,13.10
2011,05,08,17,31,13.10
2011,05,08,17,32,13.00
2011,05,08,17,33,13.00
2011,05,08,17,34,12.90
2011,05,08,17,35,12.90
2011,05,08,17,36,13.00
2011,05,08,17,37,13.00
2011,05,08,17,38,13.00
2011,05,08,17,39,13.10
2011,05,08,17,40,13.10
2011,05,08,17,41,13.20
2011,05,08,17,42,13.20
2011,05,08,17,43,13.20
2011,05,08,17,44,13.20
2011,05,08,17,45,13.10
2011,05,08,17,46,13.10
2011,05,08,17,47,13.00
2011,05,08,17,48,13.00